User: anonymous   Login
Location: Kumla
(59.1265°N, 15.1401°E)
Time: 05:33:25
(UTC+02:00)
Language:

Transit 4A - Orbit

View from above orbital plane
View from above orbital plane
View from above satellite
View from above satellite

Ground track
Ground track

The orbit data is extracted from the following two-line orbital elements,

1   116U 61015A   24110.83032392  .00000317  00000-0  30191-3 0  9997
2   116  66.8124  19.4799 0068736 107.2622 253.5994 13.92023155187460
Epoch (UTC): 19 April 2024 19:55:39
Eccentricity: 0.0068736
inclination: 66.8124°
perigee height: 871 km
apogee height: 972 km
right ascension of ascending node: 19.4799°
argument of perigee: 107.2622°
revolutions per day: 13.92023155
mean anomaly at epoch: 253.5994°
orbit number at epoch: 18746

The dashed part of the orbit path shows where the satellite is in the earth's shadow,  

DLR